CDT,Max TemperatureF,Mean TemperatureF,Min TemperatureF,Max Dew PointF,MeanDew PointF,Min DewpointF,Max Humidity, Mean Humidity, Min Humidity, Max Sea Level PressureIn, Mean Sea Level PressureIn, Min Sea Level PressureIn, Max VisibilityMiles, Mean VisibilityMiles, Min VisibilityMiles, Max Wind SpeedMPH, Mean Wind SpeedMPH, Max Gust SpeedMPH,PrecipitationIn, CloudCover, Events, WindDirDegrees
2013-4-1,80,66,53,52,48,46,80,54,31,30.06,30.00,29.92,10,10,10,10,3,16,0.00,0,,106
2013-4-2,70,61,52,63,59,42,94,80,55,30.01,29.96,29.88,10,7,2,21,9,32,0.15,6,Rain,115
2013-4-3,53,48,44,49,45,42,94,88,72,30.15,30.06,29.93,10,5,1,21,10,26,1.35,8,Rain,16
2013-4-4,52,46,42,43,40,39,93,82,66,30.20,30.15,30.11,10,8,2,16,9,23,0.03,8,Rain,323
2013-4-5,69,54,41,48,43,37,86,66,42,30.25,30.15,30.03,10,10,7,10,5,,0.00,0,,238
2013-4-6,75,65,55,57,51,44,78,63,50,30.01,29.91,29.83,10,10,10,22,10,30,0.00,1,,171
2013-4-7,73,66,60,61,58,55,84,74,62,29.91,29.83,29.74,10,10,10,16,11,33,0.00,6,,161
2013-4-8,75,70,66,63,61,57,76,71,66,29.75,29.71,29.65,10,10,9,18,13,29,0.00,7,,167
2013-4-9,82,75,68,66,64,61,88,72,52,29.71,29.66,29.61,10,9,6,23,15,34,0.00,7,,155
2013-4-10,73,56,39,67,43,34,93,84,71,29.97,29.86,29.69,10,7,1,24,14,30,0.60,7,Rain,317
2013-4-11,62,50,39,37,32,27,77,53,32,29.97,29.89,29.82,10,10,10,14,7,18,0.00,1,,335
2013-4-12,75,62,48,47,42,36,71,51,31,29.99,29.91,29.86,10,10,10,9,4,,0.00,0,,158
2013-4-13,77,65,55,49,46,42,69,51,37,29.99,29.88,29.77,10,10,10,16,8,25,0.00,0,,146
2013-4-14,81,69,57,64,57,48,83,68,54,29.76,29.65,29.54,10,10,10,20,9,30,0.00,1,,168
2013-4-15,86,76,69,66,65,64,87,71,53,29.75,29.68,29.59,10,9,7,18,12,29,0.00,3,,168
2013-4-16,87,79,71,68,65,63,83,66,48,29.90,29.81,29.75,9,7,5,20,12,31,0.00,3,,158
2013-4-17,84,78,71,70,67,65,94,74,54,29.88,29.78,29.61,10,8,2,24,13,37,0.00,7,Rain,154
2013-4-18,75,60,45,72,51,33,94,79,45,30.15,29.80,29.53,10,6,1,26,17,36,1.29,7,Rain-Thunderstorm,312
2013-4-19,63,51,39,35,30,25,79,49,25,30.28,30.20,30.14,10,10,10,18,9,25,0.00,0,,312
2013-4-20,71,59,48,37,31,28,54,37,23,30.20,30.12,30.01,10,10,10,17,8,28,0.00,0,,162
2013-4-21,69,57,45,49,45,36,86,61,47,30.20,30.12,30.06,10,10,10,12,8,20,0.00,2,,137
2013-4-22,79,65,52,57,52,46,80,61,45,30.09,29.97,29.84,10,10,10,18,9,28,0.00,0,,156
2013-4-23,66,55,42,61,50,37,94,81,68,30.18,29.96,29.79,10,8,3,20,13,29,0.01,7,Rain,281
2013-4-24,63,50,39,37,34,30,87,61,32,30.32,30.25,30.18,10,10,8,18,13,25,0.02,5,Rain-Thunderstorm,360
2013-4-25,73,63,53,44,39,32,50,43,32,30.33,30.25,30.14,10,10,10,15,7,21,0.00,4,,102
2013-4-26,79,68,60,64,55,42,81,64,50,30.16,30.07,29.97,10,10,9,15,10,22,0.00,6,,142
2013-4-27,75,66,57,65,59,53,88,72,49,30.10,30.03,29.98,10,10,7,15,8,21,0.00,3,,304
2013-4-28,81,67,54,63,58,51,93,77,54,30.04,29.96,29.85,10,8,2,9,5,,0.00,3,Rain,118
2013-4-29,84,74,63,65,60,57,87,63,40,29.89,29.84,29.77,10,10,10,17,7,25,0.00,0,,164
2013-4-30,82,71,60,63,60,56,94,73,49,29.84,29.79,29.73,10,9,4,15,6,21,0.00,3,,147